Location: Seasalter
(51.3333°N, 1.0167°E)
Time: 12:12:07
(UTC+00:00)

Cosmos 2333 Rocket - Pass Details

Date: 26 September 2023
Orbit: 837 x 864 km, 70.8° (Epoch: 28 November)

Event Time Altitude Azimuth Distance (km) Brightness Sun altitude
Rises 02:29:06 0° 330° (NNW) 3,422 5.5 -29.4°
Reaches altitude 10° 02:31:46 10° 340° (NNW) 2,487 4.8 -29.1°
Maximum altitude 02:37:00 36° 46° (NE) 1,340 3.7 -28.5°
Drops below altitude 10° 02:42:14 10° 112° (ESE) 2,492 5.0 -27.8°
Sets 02:44:55 0° 121° (ESE) 3,429 5.6 -27.5°
